[[{"header":{"parameterUnit":"m.s-1","parameterCategory":1,"la1":30.2991,"la2":30.254,"lo1":-89.0895,"lo2":-89.0444,"dy":0.0017,"dx":0.0017,"nx":28,"ny":28,"refTime":"2024-02-07T03:00:00:Z","depth":0,"parameterNumber":2,"parameterNumberName":"U-component_of_WINDS"},"data":[0,0,0,0,0,0,0,0,0,0,0,0,0,0,0,0,0,0,0,0,0,0,0,0,0,0,0,0,0,0,0,0,0,0,0,0,0,0,0,0,0,0,0,0,0,0,0,0,0,0,0,0,0,0,0,0,0,0,-2.6568,-2.6568,0,-2.6592,-2.6593,-2.6593,-2.6564,-2.6562,-2.6561,-2.656,-2.6584,-2.6585,-2.6587,0,0,0,0,0,0,0,0,0,0,0,0,0,-2.6496,-2.6497,-2.6568,-2.6568,-2.6568,-2.6592,-2.6593,-2.6593,-2.6564,-2.6562,-2.6561,-2.656,-2.6583,-2.6585,-2.6587,0,0,0,0,0,0,0,0,0,0,0,0,0,-2.6524,-2.6498,-2.6568,-2.6557,-2.6556,-2.6592,-2.6593,-2.6593,-2.6564,-2.6562,-2.6561,-2.6559,-2.6583,-2.6585,-2.6587,-2.6635,0,0,-2.6595,-2.6596,0,0,0,0,0,0,0,0,-2.6523,-2.6527,-2.6558,-2.6558,-2.6557,-2.6573,-2.6576,-2.6607,-2.6564,-2.6561,-2.656,-2.6558,-2.6581,-2.6584,-2.6592,-2.6636,-2.6637,-2.6595,-2.6597,-2.6598,-2.6598,0,0,0,0,0,0,0,-2.6521,-2.6526,-2.6577,-2.6559,-2.6558,-2.6551,-2.6553,-2.6582,-2.658,-2.6561,-2.6559,-2.6562,-2.6581,-2.659,-2.6592,-2.6637,-2.6595,-2.6597,-2.6599,-2.66,-2.6722,-2.6724,0,0,0,0,0,0,-2.652,-2.6524,-2.6577,-2.6578,-2.6536,-2.6553,-2.6556,-2.657,-2.658,-2.658,-2.6564,-2.6561,-2.6586,-2.6589,-2.6593,-2.6649,-2.6598,-2.66,-2.6601,-2.6721,-2.6723,-2.6725,0,0,0,0,0,0,-2.6519,-2.6525,-2.6576,-2.6551,-2.6557,-2.6556,-2.6572,-2.6571,-2.658,-2.6582,-2.6581,-2.6573,-2.6585,-2.659,-2.6625,-2.665,-2.6601,-2.6603,-2.6719,-2.6721,-2.6724,-2.6762,0,0,0,0,0,0,-2.6517,-2.6525,-2.6543,-2.6551,-2.6558,-2.6607,-2.6574,-2.6573,-2.6584,-2.6581,-2.659,-2.659,-2.6584,-2.6622,-2.6627,-2.6652,-2.6605,-2.6716,-2.672,-2.6723,-2.6758,-2.6766,-2.6772,0,0,0,0,0,-2.6514,-2.6552,-2.6544,-2.655,-2.6581,-2.6609,-2.6613,-2.6605,-2.6586,-2.6604,-2.6606,-2.659,-2.6647,-2.6625,-2.6632,-2.6658,-2.6715,-2.6719,-2.6723,-2.6755,-2.6764,-2.6772,0,0,0,0,0,0,-2.6545,-2.6553,-2.6544,-2.6585,-2.6597,-2.6604,-2.6626,-2.6615,-2.6631,-2.6627,-2.6617,-2.662,-2.6657,-2.6661,-2.6638,-2.6705,-2.6677,-2.6683,-2.67,-2.6708,-2.6715,-2.6712,-2.6607,0,0,0,0,0,-2.6557,-2.658,-2.6585,-2.6621,-2.6628,-2.6626,-2.6638,-2.6632,-2.6643,-2.6647,-2.6651,-2.6663,-2.6683,-2.6696,-2.6715,-2.676,-2.6761,-2.6781,-2.6788,-2.6793,-2.6797,-2.6821,-2.683,-2.6738,-2.6738,-2.6738,0,0,-2.6581,-2.6588,-2.6603,-2.6628,-2.6636,-2.6659,-2.663,-2.6656,-2.6673,-2.6651,-2.6685,-2.6689,-2.67,-2.6741,-2.6759,-2.6745,-2.6823,-2.6798,-2.6803,-2.6804,-2.6826,-2.6835,-2.6843,-2.6741,-2.674,-2.674,0,0,-2.6637,-2.6645,-2.6676,-2.6685,-2.6698,-2.6697,-2.6705,-2.6715,-2.6716,-2.675,-2.6734,-2.6755,-2.679,-2.6799,-2.6808,-2.6871,-2.6856,-2.6877,-2.6911,-2.6935,-2.6942,-2.6948,-2.697,-2.6977,-2.6882,-2.6882,-2.6882,0,-2.6664,-2.6699,-2.6693,-2.672,-2.6732,-2.6715,-2.6746,-2.6755,-2.6774,-2.6782,-2.6767,-2.6812,-2.6818,-2.6861,-2.6876,-2.6885,-2.6893,-2.6875,-2.6942,-2.6948,-2.6954,-2.6974,-2.6982,-2.6884,-2.6884,-2.6884,-2.6884,0,-2.6733,-2.6758,-2.6781,-2.6801,-2.6815,-2.6844,-2.6842,-2.6858,-2.6851,-2.6852,-2.6887,-2.6896,-2.6916,-2.6926,-2.6919,-2.6968,-2.6959,-2.6943,-2.6915,-2.6965,-2.6984,-2.6991,-2.6888,-2.6887,-2.6886,-2.6886,0,0,-2.6806,-2.6823,-2.6832,-2.684,-2.6855,-2.6874,-2.6903,-2.6924,-2.6937,-2.6951,-2.6975,-2.7006,-2.6992,-2.7003,-2.6997,-2.7018,-2.7067,-2.7,-2.7,-2.7011,-2.712,-2.7131,-2.714,-2.7058,-2.706,-2.7061,-2.7119,0,-2.6861,-2.6911,-2.6907,-2.6955,-2.6978,-2.6963,-2.6988,-2.7,-2.7003,-2.7022,-2.7025,-2.7047,-2.7027,-2.7033,-2.7054,-2.7056,-2.7088,-2.7052,-2.7079,-2.708,-2.7075,-2.7149,-2.716,-2.7214,-2.7126,-2.7127,-2.7128,0,-2.6931,-2.6948,-2.6998,-2.7011,-2.702,-2.7043,-2.7062,-2.7082,-2.7095,-2.7095,-2.7108,-2.71,-2.7129,-2.7103,-2.7143,-2.7119,-2.713,-2.7134,-2.7136,-2.7136,-2.7106,-2.7151,-2.7231,-2.7239,-2.714,-2.7139,-2.7138,0,-2.6978,-2.7014,-2.7049,-2.7057,-2.7072,-2.7089,-2.7096,-2.7108,-2.7121,-2.7138,-2.7147,-2.7167,-2.7178,-2.7193,-2.7191,-2.7172,-2.7232,-2.7205,-2.7232,-2.7232,-2.7243,-2.7242,-2.7325,-2.7254,-2.7254,-2.7253,-2.7253,0,-2.7038,-2.7069,-2.707,-2.7091,-2.7126,-2.7122,-2.7156,-2.7161,-2.7173,-2.7194,-2.7184,-2.7204,-2.72,-2.7221,-2.722,-2.7253,-2.7258,-2.7259,-2.7257,-2.7259,-2.7258,-2.7264,-2.726,-2.7255,-2.7255,-2.7255,-2.7254,0,-2.7095,-2.7097,-2.7134,-2.7146,-2.715,-2.7175,-2.7185,-2.7205,-2.7208,-2.7236,-2.7242,-2.7246,-2.727,-2.727,-2.7297,-2.7296,-2.7337,-2.7332,-2.7332,-2.733,-2.7357,-2.7354,-2.7445,-2.7456,-2.7379,-2.738,-2.7381,0,-2.7132,-2.7156,-2.7172,-2.7186,-2.7194,-2.7218,-2.7231,-2.7229,-2.7244,-2.7262,-2.728,-2.7304,-2.7322,-2.7361,-2.7366,-2.7387,-2.7382,-2.7413,-2.7385,-2.7385,-2.7381,-2.7379,-2.7381,-2.7417,-2.7418,-2.7419,-2.7419,0,-2.7198,-2.7199,-2.7219,-2.7241,-2.7258,-2.7275,-2.729,-2.7303,-2.7303,-2.732,-2.7345,-2.7359,-2.7388,-2.7411,-2.7432,-2.7439,-2.7429,-2.7429,-2.7436,-2.7436,-2.7434,-2.7434,-2.7345,-2.7426,-2.7425,-2.7425,-2.7424,-2.7424,-2.7246,-2.7266,-2.7281,-2.7304,-2.7316,-2.7332,-2.7351,-2.7357,-2.7378,-2.7402,-2.74,-2.7428,-2.7442,-2.7469,-2.7478,-2.7499,-2.7488,-2.7499,-2.7501,-2.7503,-2.7506,-2.7433,-2.7503,-2.7503,-2.7503,-2.7503,-2.7503,0,-2.731,-2.7319,-2.7342,-2.7364,-2.7383,-2.7374,-2.7391,-2.7407,-2.7432,-2.7447,-2.7466,-2.7495,-2.7518,-2.7526,-2.7548,-2.7564,-2.756,-2.7569,-2.7567,-2.7569,-2.7515,-2.7506,-2.7572,-2.7572,-2.7572,-2.7572,-2.7572,-2.7572,-2.7346,-2.738,-2.7383,-2.7423,-2.7432,-2.746,-2.747,-2.7484,-2.7496,-2.7529,-2.7549,-2.7554,-2.7566,-2.7589,-2.761,-2.7612,-2.762,-2.7631,-2.7631,-2.758,-2.7573,-2.7566,-2.7557,-2.7634,-2.7634,-2.7683,-2.7683,-2.7684]},{"header":{"parameterUnit":"m.s-1","parameterCategory":1,"la1":30.2991,"la2":30.254,"lo1":-89.0895,"lo2":-89.0444,"dy":0.0017,"dx":0.0017,"nx":28,"ny":28,"refTime":"2024-02-07T03:00:00:Z","depth":0,"parameterNumber":3,"parameterNumberName":"V-component_of_WINDS"},"data":[0,0,0,0,0,0,0,0,0,0,0,0,0,0,0,0,0,0,0,0,0,0,0,0,0,0,0,0,0,0,0,0,0,0,0,0,0,0,0,0,0,0,0,0,0,0,0,0,0,0,0,0,0,0,0,0,0,0,2.1633,2.1634,0,2.1669,2.167,2.167,2.1744,2.1746,2.1747,2.1749,2.1785,2.1785,2.1785,0,0,0,0,0,0,0,0,0,0,0,0,0,2.1631,2.1631,2.1633,2.1634,2.1634,2.1669,2.167,2.167,2.1744,2.1746,2.1748,2.1749,2.1785,2.1785,2.1784,0,0,0,0,0,0,0,0,0,0,0,0,0,2.1646,2.163,2.1633,2.1675,2.168,2.1669,2.167,2.167,2.1744,2.1746,2.1748,2.175,2.1786,2.1785,2.1784,2.1736,0,0,2.1783,2.1782,0,0,0,0,0,0,0,0,2.1645,2.1646,2.1669,2.1672,2.1677,2.1705,2.1682,2.1692,2.1743,2.1719,2.1749,2.1751,2.1757,2.1759,2.176,2.1738,2.1739,2.1782,2.1782,2.1782,2.1782,0,0,0,0,0,0,0,2.1644,2.1645,2.1648,2.1669,2.1674,2.1693,2.1698,2.1685,2.1725,2.1722,2.1727,2.173,2.1759,2.1761,2.1762,2.174,2.1782,2.1782,2.1782,2.1781,2.1683,2.1681,0,0,0,0,0,0,2.1636,2.1643,2.1647,2.1649,2.1666,2.1691,2.1697,2.1694,2.1725,2.1732,2.1728,2.1734,2.1761,2.1762,2.1763,2.1712,2.1782,2.1781,2.1781,2.1685,2.1682,2.168,0,0,0,0,0,0,2.1636,2.1636,2.1645,2.1648,2.165,2.1689,2.1685,2.1693,2.1695,2.1731,2.1738,2.1722,2.1763,2.1764,2.1743,2.1714,2.1781,2.178,2.1688,2.1684,2.1681,2.1606,0,0,0,0,0,0,2.1636,2.1635,2.1617,2.1647,2.165,2.1623,2.1683,2.1692,2.1693,2.1701,2.1727,2.1733,2.1764,2.1744,2.1742,2.1714,2.178,2.1691,2.1686,2.1682,2.1611,2.16,2.1591,0,0,0,0,0,2.1635,2.1593,2.1615,2.1615,2.1627,2.1621,2.1623,2.166,2.1691,2.1673,2.1697,2.1733,2.1717,2.1741,2.174,2.1711,2.1693,2.1688,2.1683,2.1615,2.1602,2.1591,0,0,0,0,0,0,2.1558,2.1598,2.1623,2.1589,2.1601,2.1634,2.1613,2.1644,2.1648,2.1655,2.17,2.1705,2.1679,2.1693,2.1719,2.1668,2.1711,2.1705,2.166,2.1648,2.1638,2.1636,2.1779,0,0,0,0,0,2.1537,2.1529,2.1564,2.1531,2.1536,2.1573,2.1572,2.1599,2.1614,2.1619,2.1641,2.1654,2.1653,2.1651,2.1651,2.1613,2.1621,2.1593,2.1583,2.1574,2.157,2.1554,2.1543,2.1664,2.1664,2.1664,0,0,2.1494,2.1514,2.1506,2.1516,2.1529,2.152,2.1577,2.1564,2.1559,2.1617,2.16,2.1616,2.1634,2.1605,2.1593,2.1616,2.1538,2.1568,2.1561,2.1561,2.1548,2.1536,2.1526,2.166,2.1661,2.1661,0,0,2.1411,2.1424,2.14,2.1412,2.1432,2.1457,2.1451,2.1479,2.1493,2.1476,2.152,2.1515,2.151,2.1522,2.1527,2.1452,2.1486,2.145,2.1398,2.1382,2.1373,2.1365,2.134,2.1331,2.1445,2.1445,2.1445,0,2.1355,2.1343,2.1383,2.137,2.1374,2.1427,2.1403,2.1413,2.1431,2.1433,2.1458,2.1456,2.1471,2.1447,2.1429,2.143,2.1427,2.1448,2.1371,2.1363,2.1356,2.1334,2.1324,2.1441,2.1441,2.1442,2.1442,0,2.1275,2.1266,2.1244,2.1262,2.1263,2.1244,2.1283,2.1279,2.1307,2.133,2.1314,2.1334,2.1341,2.1337,2.1363,2.1318,2.1332,2.1363,2.1407,2.134,2.132,2.1311,2.1435,2.1436,2.1437,2.1438,0,0,2.1144,2.1186,2.1177,2.1187,2.1213,2.1208,2.1192,2.12,2.1197,2.1208,2.1198,2.1194,2.1224,2.123,2.1258,2.1244,2.1186,2.1278,2.1279,2.1262,2.1141,2.1119,2.1108,2.1209,2.1207,2.1206,2.114,0,2.1069,2.1045,2.1082,2.105,2.1045,2.1096,2.1083,2.1098,2.1119,2.1118,2.1142,2.114,2.1178,2.1183,2.1171,2.1196,2.1163,2.1201,2.1201,2.1201,2.1197,2.1097,2.1073,2.101,2.1132,2.1131,2.113,0,2.0978,2.0987,2.0954,2.0985,2.0984,2.0972,2.0983,2.0981,2.1,2.1017,2.1025,2.1059,2.1047,2.1089,2.1075,2.11,2.1102,2.1115,2.1113,2.1116,2.1162,2.1099,2.099,2.0982,2.1117,2.1118,2.1119,0,2.089,2.0892,2.0875,2.0881,2.0916,2.0906,2.092,2.0942,2.0945,2.0955,2.0958,2.0965,2.097,2.0976,2.1012,2.1038,2.0994,2.1038,2.101,2.1009,2.0999,2.1,2.0891,2.0997,2.0997,2.0997,2.0997,0,2.0804,2.0783,2.0836,2.0825,2.0804,2.0846,2.0824,2.0844,2.0863,2.0857,2.0901,2.0896,2.0942,2.0942,2.097,2.0956,2.0957,2.0971,2.0979,2.0969,2.0967,2.0972,2.0978,2.0995,2.0995,2.0996,2.0996,0,2.0702,2.0736,2.072,2.0755,2.0764,2.0747,2.0777,2.0769,2.0794,2.0787,2.0788,2.0827,2.0829,2.0865,2.0874,2.0894,2.0869,2.0884,2.0863,2.0869,2.0839,2.0842,2.0732,2.0721,2.0831,2.0829,2.0829,0,2.0645,2.0631,2.0665,2.0665,2.0677,2.0676,2.068,2.0722,2.0724,2.0746,2.0736,2.0742,2.0749,2.0751,2.078,2.0788,2.0806,2.0766,2.0807,2.0798,2.0808,2.081,2.081,2.0758,2.0757,2.0756,2.0755,0,2.0543,2.0561,2.0565,2.0576,2.058,2.059,2.0603,2.06,2.0646,2.0647,2.065,2.0656,2.0667,2.0673,2.0687,2.0702,2.0737,2.0741,2.0736,2.0726,2.0715,2.0723,2.0842,2.0744,2.0745,2.0746,2.0746,2.0747,2.0464,2.0455,2.0478,2.0482,2.0496,2.0508,2.0503,2.0528,2.0532,2.0544,2.0569,2.0569,2.0591,2.0613,2.0626,2.0627,2.0648,2.0639,2.0637,2.0634,2.063,2.0713,2.063,2.063,2.063,2.0631,2.0631,0,2.0366,2.0384,2.0387,2.0405,2.0408,2.044,2.0457,2.0458,2.0458,2.0475,2.0482,2.0487,2.0494,2.0525,2.0535,2.0531,2.0547,2.0532,2.0534,2.0538,2.061,2.0615,2.0519,2.0519,2.0519,2.0519,2.0519,2.0519,2.0316,2.0303,2.0325,2.032,2.0338,2.0339,2.0346,2.0358,2.0373,2.0377,2.0383,2.0403,2.0426,2.0439,2.0448,2.0457,2.0459,2.044,2.0454,2.0521,2.0532,2.0542,2.0548,2.0439,2.0439,2.0383,2.0382,2.0382]}]]